Home   Weather   East Fairfield   Past weeks
Flag for USA

Past Weather in East Fairfield, Vermont, USA — Yesterday and Last 2 Weeks

Now
27 °F

Scattered clouds.


Feels Like: 22 °F
Forecast: 26 / 20 °F
Wind: 5 mph from North

Location: Burlington International Airport

Current Time: Dec 12, 2019 at 1:50:20 pm

Latest Report: Dec 12, 2019 at 12:54 pm


Visibility: 10 mi

Pressure: 30.66 "Hg

Humidity: 45%

Dew Point: 8 °F

Location of East FairfieldLocation

Past Weather in East Fairfield — Graph

°F

East Fairfield Temperature Yesterday

Maximum temperature yesterday: 31 °F (at 2:54 pm)
Minimum temperature yesterday: 20 °F (at 4:54 am)
Average temperature yesterday: 25 °F

High & Low Weather Summary for the Past Weeks

 TemperatureHumidityPressure
High51 °F (Dec 10, 9:54 am)96% (Nov 27, 7:54 pm)30.70 "Hg (Nov 27, 7:54 pm)
Low6 °F (Dec 8, 5:54 am)41% (Dec 11, 1:54 pm)29.40 "Hg (Dec 4, 1:54 pm)
Average29 °F73%29.95 "Hg
* Reported Nov 27 11:54 am — Dec 12 11:54 am, East Fairfield. Weather by CustomWeather, © 2019

Note: Actual official high and low records may vary slightly from our data, if they occured in-between our weather recording intervals... More about our weather records

East Fairfield Weather History for the Previous 24 Hours

Scroll right to see more
 ConditionsComfort  
Time TempWeatherWind HumidityBarometerVisibility
11:54 am
Thu, Dec 12
27 °FScattered clouds.7 mph46%30.67 "Hg10 mi
10:54 am24 °FPartly sunny.8 mph50%30.70 "Hg10 mi
9:54 am24 °FPartly sunny.10 mph50%30.69 "Hg10 mi
8:54 am23 °FPartly sunny.13 mph50%30.66 "Hg10 mi
7:54 am23 °FPartly sunny.8 mph55%30.63 "Hg10 mi
6:54 am22 °FPassing clouds.12 mph55%30.59 "Hg10 mi
5:54 am23 °FPassing clouds.16 mph50%30.56 "Hg10 mi
4:54 am23 °FOvercast.16 mph50%30.53 "Hg10 mi
3:54 am22 °FPassing clouds.10 mph52%30.50 "Hg10 mi
2:54 am21 °FPassing clouds.7 mph68%30.50 "Hg10 mi
1:54 am22 °FPassing clouds.12 mph55%30.47 "Hg10 mi
12:54 am23 °FMostly cloudy.15 mph48%30.44 "Hg10 mi
11:54 pm
Wed, Dec 11
23 °FPassing clouds.17 mph46%30.40 "Hg10 mi
10:54 pm24 °FClear.15 mph48%30.36 "Hg10 mi
9:54 pm26 °FLight snow. Passing clouds.20 mph55%30.32 "Hg10 mi
8:54 pm27 °FPassing clouds.16 mph53%30.26 "Hg10 mi
8:05 pm27 °FMostly cloudy.15 mph69%30.22 "Hg9 mi
7:54 pm26 °FLight snow. Overcast.14 mph81%30.23 "Hg4 mi
6:54 pm31 °FMostly cloudy.13 mph54%30.16 "Hg10 mi
5:54 pm30 °FPassing clouds.13 mph51%30.15 "Hg10 mi
4:54 pm29 °FPassing clouds.10 mph51%30.14 "Hg10 mi
3:54 pm30 °FPartly sunny.16 mph47%30.14 "Hg10 mi
2:54 pm31 °FPartly sunny.13 mph41%30.11 "Hg10 mi
1:54 pm30 °FScattered clouds.14 mph41%30.12 "Hg10 mi
Weather by CustomWeather, © 2019

See weather overview

Advertising